📊 Raw Sensor Data

Showing records 35826 to 35850 of 84,885 total

ID Distance (ft) Battery V Battery A Int Temp (°F) Int Humid (%) Ext Temp (°F) Solar V RSSI SNR Time Stamp
49072 15.3 3.90 0 73 42 74 5.10 -71 8 08/13/2025 10:15 AM
49071 15.3 3.90 0 72 42 74 5.10 -71 8 08/13/2025 10:00 AM
49070 15.3 3.90 0 71 42 72 5.10 -72 7 08/13/2025 09:45 AM
49069 15.3 3.90 0 70 43 73 5.10 -69 8 08/13/2025 09:30 AM
49068 15.3 3.94 0 69 43 71 5.10 -71 8 08/13/2025 09:15 AM
49067 15.3 3.90 0 67 43 71 5.10 -69 8 08/13/2025 08:45 AM
49066 15.2 3.90 0 65 43 70 5.10 -69 8 08/13/2025 08:30 AM
49065 15.2 3.90 0 63 43 67 5.10 -70 8 08/13/2025 08:15 AM
49064 15.1 3.90 0 62 43 62 5.10 -69 8 08/13/2025 08:00 AM
49063 15.0 3.96 39 61 43 61 4.50 -69 8 08/13/2025 07:45 AM
49062 15.0 3.93 6 60 43 60 4.50 -69 7 08/13/2025 07:15 AM
49061 15.0 3.92 0 59 44 59 4.50 -70 8 08/13/2025 07:00 AM
49060 15.0 3.79 -6 59 44 59 4.60 -70 8 08/13/2025 06:45 AM
49059 15.0 3.78 -10 59 44 59 4.20 -71 8 08/13/2025 06:30 AM
49058 15.0 3.79 -5 59 44 59 1.70 -69 8 08/13/2025 06:15 AM
49057 15.0 3.79 -5 59 44 59 0.70 -71 8 08/13/2025 06:00 AM
49056 15.0 3.80 -5 59 44 59 0.00 -70 9 08/13/2025 05:45 AM
49055 15.0 3.89 -5 59 44 60 0.00 -69 8 08/13/2025 05:30 AM
49054 15.0 3.89 -5 60 44 60 0.10 -69 8 08/13/2025 05:15 AM
49053 15.0 3.79 -5 60 44 60 0.00 -71 8 08/13/2025 05:00 AM
49052 15.0 3.80 -5 60 44 60 0.00 -70 8 08/13/2025 04:45 AM
49051 15.0 3.80 -5 60 44 60 0.00 -70 8 08/13/2025 04:30 AM
49050 15.0 3.80 -5 60 44 61 0.00 -69 8 08/13/2025 04:15 AM
49049 15.0 3.80 -5 60 44 61 0.00 -71 7 08/13/2025 04:00 AM
49048 15.0 3.80 -5 60 44 61 0.00 -70 8 08/13/2025 03:45 AM